Погода в Теджене

Погода в Теджене : погода сейчас, прогноз погоды и архив. Всё, что Вы хотите узнать о погоде в Теджене!

Хотите узнать прогноз погоды в Теджене? Тогда Вам сюда: Погода в Теджене

Поиск расширенной информации на нашем сайте:

Другие новости

Новости СМИ2

Главная страница сайта

Новости сайта

03.07.2017

Напоминаем, что на нашем специализированном сайте Метеоцентр.Азия вы можете получить высокодетализированные автоматические прогнозы погоды по пунктам России, СНГ и мира в авиационном формате (включающие направление и скорость ветра, видимость, явления погоды, количество и форму облачности, нижнюю и верхнюю границу облачности).

Рекомендуем: http://www.woomen.biz/ запорожский женский форум.

Погода в Теджене - сегодня

Время (UTC), дата Ветер
(°,м/с) 
Видим.   Явления Облачность Т
(°С)
Тd
(°С)
f(%) Тe
(°С)
Pmin
(гПа)
dP
(гПа)
Po
(мм)
O2
(г/м3)
Тmin Tmax R s Состояние
почвы
15 18.11.18 100 (В) 10 км    ясно 
+10.8 +4.6 65 +12  1023.7  0.1  751  290    +18.4       
18 18.11.18 140 (ЮВ) 10 км    ясно 
+9 +3.4 68 +9  1023.7  -0.2  751  292    +18.4       
21 18.11.18 160 (Ю) 10 км    ясно 
+7.8 +4.1 77 +9  1022.1  -1.7  749  293           
00 19.11.18 тихо ()   10 км    9/0 верхняя 
[Cs]
+7.1 +4.1 81 +7  1021.7  -0.4  749  294           
03 19.11.18 тихо ()   10 км    6/3 1000 м верхняя 
[Sc|Cc]
+5.9 +3.3 83 +6  1021.7  -0.1  749  295           
06 19.11.18 тихо ()   10 км    8/5 1000 м средняя, верхняя 
[Sc|Ac trans|Ci]
+12.8 +5.8 62 +13  1022.4  1.2  750  288  +5.5         
09 19.11.18 330 (СЗ) 10 км    8/3 1000 м верхняя 
[Sc|Cs]
+16.4 +5.6 49 +17  1022  -0.1  750  284           
12 19.11.18 330 (СЗ) 10 км    10/10 600 м кучево-дожд. 
[Cb cap]
+14.4 +4.5 51 +14  1022.9  0.7  750  287           
15 19.11.18 310 (СЗ) 4000 м  ливневой дождь  10/10 600 м кучево-дожд. 
[Cb cap]
+10 +8.4 90 +10  1025.8  2.5  752  291    +16.6     
18 19.11.18 290 (З) 4000 м  в посл. час ливневой дождь  10/10 600 м кучево-дожд. 
[Cb cap]
+9.8 +8.1 89 +11  1026.6  0.8  753  291    +16.6     
21 19.11.18 тихо ()   4000 м  дымка  10/10 600 м 
[Sc]
+9.3 +7.8 90 +9  1027.1  0.5  753  292           
00 20.11.18 тихо ()   4000 м  дымка  10/10 600 м 
[Sc]
+9.4 +7.7 89 +9  1027.2  0.1  753  292           
03 20.11.18 тихо ()   4000 м  дымка  10/10 300 м кучево-дожд. 
[Cb cap]
+9.4 +8.1 92 +9  1027.9  0.7  754  292         
06 20.11.18 160 (Ю) 4000 м  дымка  10/10 600 м 
[Sc]
+10.2 +7.7 84 +10  1028.5  0.6  754  292  +9.2         
09 20.11.18 120 (ЮВ) 10 км    9/9 1000 м 
[Cu med, cong]
+12.3 +7.6 73 +13  1023.8  -4.5  751  288           
12 20.11.18 110 (В) 10 км    10/10 1000 м 
[Sc]
+12.4 +7.7 73 +12  1021.9  -1.8  750  288           
15 20.11.18 090 (В) 10 км    9/0 
+10 +7.3 83 +10  1025.3  3.1  752  291    +12.4       
18 20.11.18 090 (В) 4000 м  дымка  10/0 средняя 
[As op]
+7.6 +5.8 88 +9  1023.8  -1.6  751  293    +12.4       
21 20.11.18 110 (В) 4000 м  дымка  10/0 верхняя 
[Cs]
+7.3 +5.5 88 +7  1022.2  -1.6  749  293           
00 21.11.18 110 (В) 4000 м  дымка  6/0 верхняя 
[Ci]
+6.8 +5.5 91 +7  1017.6  -4.5  746  292           
03 21.11.18 120 (ЮВ) 4000 м  дымка  10/0 средняя 
[As op]
+7.6 +6.1 90 +8  1015.2  -2.3  744  291           
06 21.11.18 120 (ЮВ) 10 км    10/0 средняя 
[Ac As]
+10.7 +8 83 +12  1013.2  -1.5  743  287  +6.3         
09 21.11.18 320 (СЗ) 10 км    10/0 средняя 
[Ac As]
+11.2 +8 81 +11  1011.9  -1.3  742  286           
12 21.11.18 300 (СЗ) 10 км    8/0 средняя, верхняя 
[Ac lent|Ci ing]
+12.6 +8.8 78 +13  1011.6  -0.1  742  284           
15 21.11.18 260 (З) 10 км    9/0 верхняя 
[Ci ing]
+9.5 +7 84 +10  1013.2  1.3  743  288    +12.8       
Время (UTC), дата Ветер
(°,м/с) 
Видим.   Явления Облачность Т
(°С)
Тd
(°С)
f(%) Тe
(°С)
Pmin
(гПа)
dP
(гПа)
Po
(мм)
O2
(г/м3)
Тmin Tmax R s Состояние
почвы

Для получения пояснительной информации подведите курсор к названию столбца.

ПОГОДА в Теджене - архив

Всё, что Вы хотите узнать о погоде в Теджене - удобно и подробно!

Выберите нужную дату (начиная с 1 января 2015* года) и нажмите кнопку "Найти".
Будут отображены архивные сводки погоды по пункту Теджен, начиная с указанной даты.


Отображать данные в формате CSV (для использования в таблицах Excel)


Внимание! Наш архив погоды предназначен исключительно для личного некоммерческого использования в познавательных целях. Если Вам необходимы официальные справки о состоянии погоды (для производственных, юридических, коммерческих и т.п. целей), обращайтесь в органы Росгидромета.

*Примечание: данная дата относится к архиву по метеостанциям СССР (Россия, СНГ, Балтия).
Архив по метеостанциям Зарубежной Европы и Азии (кроме Китая) хранится 10 дней, по другим регионам земного шара (Китай, Африка, Америка, Австралия, Океания) - 1 день.

Теджен - район местоположения метеостанции


Название, широта, долгота, высота метеостанции:
Теджен 37.4°ш. 60.5°д. 186 м над ур. моря [Туркменистан]

Дополнительная информация

В oтличие oт бoльшинства пoгoдных сайтoв мы публикуем пoдрoбную метеoинфoрмацию в детальнoм прoфессиoнальнoм фoрмате.

Характеристики температуры и влажнoсти вoздуха измеряются на высoте 2 м в тени вдали oт зданий и деревьев.
Скoрoсть ветра измеряется на высoте 10 м (на урoвне рoста челoвека скoрoсть ветра ниже в 1.5-2 раза). Если метеoстанция нахoдится в гoрoде или в лесу, тo скoрoсть ветра занижена на 2-4 м/с пo сравнению с oткрытым местoм. Скoрoсть ветра над акватoриями крупных рек и oзёр, а также на вершинах хoлмoв на 2-5 м/с выше, чем в oбычных услoвиях.
Атмoсфернoе давление в разных тoчках местнoсти мoжет значительнo oтличаться oт давления на метеoстанции, в зависимoсти oт услoвий рельефа (при пoдъёме на 10 м давление пoнижается примернo на 1 мм рт.ст.).